Вернуться в каталог

INDEX

АктивенНаукаPO
NORAD 28810·PAYLOAD·🇯🇵 Japan

Запущен Aug 23, 2005 с Baikonur Cosmodrome

Loading…

Ближайшие Пролёты (ближайшие 24 часа)

TLE

СвежийSource: Space-Track

Эпоха: Sep 13, 2026, 21:56 UTC

1 28810U 05031B   26256.91444010  .00004429  00000-0  26375-3 0  9997
2 28810  98.0253  25.2076 0019506 166.9921 193.1815 15.11626334144396

Отслеживайте INDEX в реальном времени с AllMySat

Download on the App Store